Wetbulb
56.47 55.45 54.46 53.70 53.02 52.91 52.70 52.01 50.90 50.49 50.56 50.79 49.90 49.03 48.45 48.19 47.66 47.59 47.64 47.56 47.34 47.21 47.08 46.95 46.88 46.70 46.71 46.82 45.49 44.26 43.62 43.86 44.83 44.96 44.92 45.40 45.67 45.72 45.55 45.49 45.34 45.26 45.04 44.71 44.63 44.47 44.21 44.01 43.75 43.55 43.37 43.44 43.37 43.41 43.41 43.49 43.69 43.53 43.19 42.83 42.70 42.65 42.60 42.36 42.12 41.99 41.88 41.83 41.76
56.33 55.11 53.68 51.83 51.53 52.13 52.49 51.59 50.97 50.56 50.49 51.02 50.00 49.26 48.72 48.46 48.06 47.86 47.85 47.98 47.90 47.77 47.70 47.36 47.17 47.04 46.76 46.16 44.56 43.78 43.71 44.33 45.07 45.28 45.41 45.54 45.67 45.65 45.49 45.42 45.36 45.15 44.89 44.64 44.64 44.41 44.14 44.04 43.83 43.50 43.28 43.41 43.25 43.20 43.31 43.63 43.68 43.54 43.10 42.85 42.87 42.85 42.79 42.43 42.29 42.30 42.21 42.08 41.98
56.13 54.84 53.72 53.11 53.05 52.84 52.35 51.59 51.25 51.11 51.17 51.02 50.07 49.47 49.06 48.80 48.59 48.39 48.26 48.32 48.46 48.39 48.18 47.70 47.45 47.23 46.49 45.18 44.13 43.94 44.42 45.04 45.52 45.65 45.70 45.66 45.65 45.57 45.40 45.36 45.40 44.95 44.61 44.69 44.69 44.54 44.34 44.18 43.64 43.08 42.81 43.06 43.12 43.06 43.13 43.62 43.69 43.44 43.20 43.01 42.99 42.96 42.79 42.51 42.56 42.50 42.43 42.19 42.02
56.13 54.91 53.71 53.24 53.26 53.05 52.56 51.66 51.45 51.45 51.31 50.90 50.27 49.67 49.20 49.20 49.06 48.92 48.79 48.86 48.73 48.45 48.24 47.96 47.75 47.09 45.78 43.91 43.76 44.20 44.72 44.82 45.55 45.86 45.70 45.58 45.56 45.54 45.48 45.53 45.25 45.04 45.02 45.15 44.84 44.76 44.62 44.43 43.75 43.18 42.97 43.29 43.27 43.18 43.10 43.27 43.27 43.27 43.20 43.25 43.20 43.05 42.94 42.80 42.86 42.68 42.44 42.26 42.24
56.12 55.05 53.83 53.03 53.38 53.39 53.12 52.49 51.94 51.66 51.46 51.11 50.22 49.54 49.20 49.20 49.20 49.20 48.99 48.52 48.17 48.30 48.49 48.62 48.02 46.44 44.55 43.14 43.80 44.38 45.07 45.31 44.45 45.09 45.75 45.54 45.52 45.46 45.47 45.43 45.18 45.02 45.07 45.06 44.97 44.90 44.82 44.42 43.77 43.47 43.38 43.54 43.39 43.27 43.27 43.29 43.11 43.10 43.11 43.32 43.24 43.22 43.08 42.94 42.96 42.84 42.58 42.32 42.37
55.96 55.40 54.40 53.26 53.53 53.64 53.39 52.84 52.28 51.87 51.59 51.32 50.56 49.81 49.26 48.98 49.04 48.91 48.63 48.23 48.35 48.75 48.86 47.92 46.40 44.60 43.30 43.33 44.01 44.56 45.09 45.74 45.32 45.49 45.77 45.55 45.43 45.46 45.37 45.20 45.23 45.13 45.02 45.09 45.03 45.06 44.94 44.47 43.68 43.47 43.58 43.68 43.63 43.54 43.46 43.29 43.05 43.05 43.05 43.08 43.08 43.18 43.21 43.02 42.97 42.88 42.72 42.37 42.37
56.18 55.62 54.70 53.35 53.41 53.43 53.31 52.82 52.19 51.91 51.71 51.45 50.89 50.26 49.63 49.08 49.01 48.87 48.73 48.60 48.73 48.77 48.11 46.40 44.70 43.59 43.28 43.82 44.19 44.63 45.07 45.47 45.71 45.80 45.73 45.49 45.46 45.18 45.02 45.04 45.14 45.13 45.09 45.01 44.97 44.98 44.86 44.67 43.79 43.11 42.84 42.72 43.06 43.20 43.27 43.25 43.20 43.20 43.11 42.86 42.95 43.15 43.28 43.42 43.25 43.04 42.63 42.49 42.21
56.15 55.72 54.73 53.19 52.97 53.26 53.40 52.90 52.20 51.70 51.35 51.02 50.61 50.45 50.07 49.56 49.16 48.87 48.79 48.81 48.76 48.45 47.48 45.78 44.62 44.02 43.97 44.29 44.28 44.70 45.02 45.36 45.38 45.50 45.60 45.37 45.29 45.04 44.97 45.00 44.99 44.92 44.93 44.93 44.89 44.82 44.68 44.62 43.90 43.48 43.20 42.73 42.46 42.65 43.21 43.44 43.42 43.32 43.20 42.91 42.96 43.19 43.67 43.99 43.99 43.43 42.87 42.50 42.44
55.87 55.37 54.58 53.31 52.82 52.97 53.33 53.05 52.27 51.62 51.06 50.71 50.53 50.43 50.34 49.70 49.31 48.99 48.76 48.66 48.45 47.72 46.61 44.82 44.35 44.26 44.40 44.54 44.56 44.83 45.09 45.23 45.23 45.33 45.34 45.12 44.93 44.92 44.92 44.83 44.72 44.60 44.63 44.82 44.80 44.78 44.59 44.41 44.05 43.67 43.15 42.32 41.96 42.37 43.14 43.64 43.42 43.39 43.37 43.19 43.04 43.19 43.51 44.06 44.14 43.64 43.13 42.80 42.61
55.73 55.09 54.36 53.35 52.83 52.94 53.11 53.18 52.33 51.75 51.24 50.82 50.55 50.35 49.62 48.06 48.39 48.75 48.91 48.66 47.99 46.79 45.39 44.34 44.41 44.54 44.64 44.52 44.77 45.07 45.32 45.31 45.20 45.24 45.18 44.76 44.54 44.61 44.61 44.51 44.40 44.26 44.35 44.63 44.72 44.70 44.63 44.22 44.07 43.66 43.13 42.44 42.04 42.39 42.91 43.46 43.30 43.28 43.33 43.16 43.27 43.27 43.33 43.73 43.85 43.54 43.15 42.82 42.78
55.87 55.09 54.23 53.37 52.98 52.74 52.83 53.16 52.27 51.56 51.11 50.53 50.18 49.91 49.22 47.84 48.33 48.73 48.92 48.70 47.31 45.91 44.96 44.63 44.79 44.86 44.69 44.60 44.97 45.24 45.53 45.56 45.32 45.20 45.06 44.83 44.48 44.59 44.64 44.56 44.38 44.13 44.12 44.26 44.63 44.54 44.31 43.99 43.87 43.30 42.68 42.17 42.19 42.36 42.70 43.10 43.08 43.12 43.20 43.42 43.52 43.43 43.25 43.21 43.48 43.37 43.05 42.88 42.89
55.87 54.95 54.24 53.60 53.10 52.89 52.76 52.82 52.06 51.36 50.71 50.18 49.86 49.47 49.17 48.80 49.01 48.95 48.66 48.12 46.64 45.64 45.20 45.39 45.30 45.13 44.97 44.97 45.35 45.52 45.49 45.72 45.49 45.24 45.04 44.83 44.75 44.73 44.58 44.56 44.37 44.32 44.23 44.35 44.46 44.37 44.09 43.74 43.42 42.68 41.93 41.79 42.13 42.46 42.69 42.79 42.76 42.71 42.88 43.30 43.40 43.32 43.11 43.03 43.12 43.13 43.04 42.88 42.87
55.87 54.95 54.17 53.61 53.18 52.96 52.82 52.47 52.05 51.21 50.50 49.92 49.68 49.40 49.15 48.86 48.86 48.67 48.32 47.60 46.45 46.00 45.81 45.74 45.62 45.46 45.38 45.55 45.94 46.02 45.98 45.69 45.46 45.20 44.99 44.91 44.65 44.57 44.49 44.34 44.38 44.38 44.36 44.44 44.52 44.33 44.07 43.70 43.04 42.04 41.29 41.33 41.97 42.45 42.81 42.74 42.61 42.37 42.46 42.70 42.84 42.95 43.02 43.08 43.04 43.02 42.96 42.78 42.54
56.07 55.09 54.38 53.89 53.24 52.81 52.46 52.40 51.84 51.14 50.42 49.85 49.75 49.61 49.40 49.00 48.70 48.34 47.92 47.25 46.67 46.47 46.30 46.01 45.63 45.52 45.77 46.15 46.40 46.36 46.18 45.80 45.49 45.23 45.09 44.80 44.64 44.42 44.15 43.86 43.92 44.11 44.38 44.56 44.62 44.42 43.99 43.69 42.75 41.94 41.31 41.28 41.73 42.33 42.81 43.06 42.78 42.52 42.43 42.53 42.61 42.84 43.02 43.28 43.22 43.13 42.85 42.68 42.22
56.13 55.36 54.73 54.16 53.44 52.80 52.46 52.33 51.70 51.13 50.48 49.90 49.86 49.61 49.33 48.97 48.33 47.88 47.63 47.29 47.09 47.12 46.94 46.46 45.91 45.84 46.06 46.63 46.85 46.67 46.35 45.90 45.58 45.25 45.04 44.70 44.53 44.35 43.88 43.13 43.04 43.61 44.30 44.56 44.58 44.37 43.96 43.31 42.39 41.72 41.27 41.14 41.41 41.75 42.23 42.70 42.87 42.82 42.81 42.76 42.89 42.99 43.12 43.40 43.32 43.07 42.85 42.53 42.09
56.20 55.71 55.15 54.44 53.65 53.01 52.53 52.26 51.55 50.91 50.32 49.83 49.79 49.53 49.25 48.72 48.34 47.80 47.40 47.36 47.59 47.69 47.43 46.84 46.43 46.41 46.46 46.46 46.77 46.67 46.42 45.90 45.58 45.32 44.99 44.78 44.55 44.38 43.95 43.07 42.79 43.42 44.13 44.37 44.39 44.12 43.75 43.19 42.26 41.70 41.36 41.35 41.35 41.48 41.62 42.10 42.56 42.81 43.02 42.99 42.99 43.10 43.10 43.15 43.15 43.06 42.95 42.70 42.07
56.49 55.93 55.44 54.73 53.94 53.30 52.66 51.96 51.11 50.38 49.95 49.86 49.74 49.40 49.04 48.62 48.31 47.62 46.98 47.25 47.82 48.06 47.82 47.28 46.94 46.85 46.74 46.38 46.60 46.44 46.14 45.83 45.52 45.26 44.94 44.80 44.77 44.55 44.19 43.43 43.40 43.78 44.22 44.28 44.02 43.62 43.05 42.59 42.22 41.97 41.85 41.98 41.67 41.55 41.65 42.06 42.38 42.73 42.91 42.97 43.02 43.15 43.26 42.97 43.12 43.20 43.06 42.76 42.20
56.79 56.36 55.80 55.02 54.31 53.59 52.86 51.79 50.86 50.15 49.83 49.89 49.75 49.40 49.03 48.73 48.38 47.80 47.43 47.49 48.42 48.61 48.23 47.75 47.49 47.26 47.09 46.88 46.79 46.33 45.90 45.75 45.38 45.14 44.95 44.75 44.72 44.56 44.34 44.19 44.09 44.26 44.37 44.24 43.94 43.26 42.41 41.55 41.73 41.94 42.08 42.35 41.96 41.92 42.11 42.55 42.80 42.97 43.06 43.13 43.17 43.34 43.48 43.48 43.54 43.49 43.31 43.07 42.40
57.22 56.80 56.16 55.44 54.87 54.15 53.22 52.00 51.36 50.68 50.28 50.02 49.82 49.48 49.13 48.97 48.75 48.53 48.31 48.32 48.67 48.92 48.96 48.29 47.75 47.40 47.17 47.04 46.86 46.05 45.40 45.58 45.31 45.07 44.88 44.61 44.26 44.25 44.36 44.56 44.66 44.63 44.38 44.15 43.84 43.25 42.39 41.47 41.51 41.84 42.04 42.13 42.08 42.35 42.69 43.04 43.14 43.38 43.45 43.41 43.38 43.48 43.57 43.73 43.76 43.67 43.53 43.34 42.82
57.66 57.23 56.65 56.01 55.44 54.79 54.00 52.99 52.43 51.80 51.11 50.49 50.03 49.56 49.42 49.35 49.40 49.18 48.98 48.80 49.05 49.47 49.52 48.69 47.81 47.25 47.03 46.96 46.54 45.93 45.40 45.26 45.27 44.92 44.54 44.06 43.66 43.86 44.26 44.65 44.69 44.59 44.35 44.03 43.67 43.11 42.40 41.64 41.75 41.90 41.96 41.90 42.14 42.46 42.80 43.11 43.27 43.39 43.58 43.74 43.66 43.67 43.73 43.73 43.74 43.81 43.57 43.38 43.10
58.02 57.66 57.16 56.73 56.16 55.58 54.86 54.12 53.48 52.78 52.01 51.18 50.58 50.18 49.91 49.84 49.84 49.83 49.76 49.49 49.77 49.77 49.50 48.92 47.85 47.04 46.63 46.53 46.07 45.60 45.11 44.85 45.06 44.73 44.09 43.21 43.24 43.72 44.20 44.32 44.44 44.34 44.16 43.77 43.53 43.01 42.47 42.04 42.01 42.08 42.31 42.33 42.51 42.67 42.91 43.01 43.08 43.32 43.52 43.78 43.84 43.91 43.85 43.85 43.71 43.62 43.53 43.31 42.97
58.46 58.25 58.03 57.38 56.88 56.30 55.71 54.91 54.26 53.56 52.86 52.10 51.49 51.15 50.95 50.75 50.61 50.60 50.63 50.46 50.13 49.70 49.25 48.49 47.85 47.17 46.59 46.20 45.59 45.10 44.72 44.54 44.62 44.24 43.59 43.21 43.64 43.99 44.25 44.24 44.21 43.95 43.78 43.33 43.06 42.75 42.38 42.27 42.18 42.30 42.74 43.30 43.30 43.14 43.02 43.02 43.02 42.98 43.27 43.49 43.66 43.80 43.84 43.81 43.74 43.53 43.34 43.08 42.84
58.83 58.76 58.39 58.03 57.52 56.43 55.56 55.34 54.99 54.42 53.79 53.17 52.62 52.13 51.72 51.45 51.24 51.21 51.07 50.67 49.66 48.98 48.46 48.00 47.60 47.03 46.44 45.77 45.28 44.84 44.44 44.14 43.82 43.48 43.37 43.65 44.10 44.16 44.19 44.23 43.90 43.58 43.26 43.08 42.88 42.50 42.13 42.06 42.27 42.60 43.12 43.72 43.72 43.53 43.33 43.23 42.86 42.61 42.68 42.83 42.93 43.19 43.30 43.47 43.42 43.25 42.96 42.70 42.44
58.90 58.83 58.61 58.32 57.82 57.16 56.44 56.07 55.57 55.00 54.37 53.88 53.26 52.77 52.28 51.94 51.58 51.21 50.67 49.92 48.92 48.06 47.36 46.99 46.72 46.54 46.15 45.41 44.90 44.42 43.91 43.15 42.69 42.73 43.16 43.73 43.87 43.91 43.80 43.82 43.67 43.46 43.35 43.52 43.13 42.68 42.19 41.91 42.69 43.23 43.63 43.75 43.76 43.77 43.64 43.47 42.86 42.50 42.28 42.28 42.32 42.46 42.61 42.79 42.92 42.75 42.47 42.18 42.07
58.76 58.61 58.47 58.32 57.89 57.31 56.73 56.29 55.71 55.21 54.79 54.45 53.96 53.33 52.63 52.00 51.37 50.51 49.55 48.38 47.27 46.48 46.02 45.84 45.46 45.70 45.69 45.11 44.78 44.22 43.55 42.59 42.35 42.47 42.80 43.19 43.25 43.42 43.46 43.43 43.45 43.57 43.33 42.44 41.15 40.71 40.78 40.85 42.41 43.39 43.93 43.88 43.92 43.86 43.83 43.47 42.97 42.54 42.15 42.05 41.92 41.76 41.83 41.98 42.10 42.08 42.03 41.82 41.82
58.32 58.25 58.10 58.10 57.74 57.17 56.52 56.01 55.64 55.28 54.93 54.80 54.31 53.40 52.35 51.16 49.96 48.80 47.69 46.66 45.91 45.51 45.01 44.53 44.20 43.98 44.02 44.59 44.27 43.67 43.10 42.82 42.88 42.82 42.73 42.78 42.78 42.99 43.20 43.17 43.57 43.76 43.04 40.67 39.27 38.93 39.33 39.73 40.12 41.03 42.36 44.02 43.76 43.46 43.22 43.08 42.89 42.57 42.18 41.95 41.64 41.23 41.03 40.89 41.03 41.31 41.48 41.56 41.68
57.82 57.74 57.74 57.67 57.24 56.74 56.02 55.51 55.15 54.99 54.71 54.28 53.17 51.98 50.45 48.63 47.20 46.33 45.64 44.85 44.57 44.37 44.23 44.17 43.78 42.93 42.46 43.48 42.68 42.36 42.40 42.95 43.16 43.15 43.04 42.92 42.85 42.91 43.09 43.09 43.42 43.37 42.02 39.22 38.20 38.11 38.47 38.87 38.82 39.07 40.19 42.72 43.05 42.87 42.49 42.34 42.35 42.27 41.95 41.64 41.28 40.89 40.53 40.17 40.24 40.48 40.82 41.23 41.51
57.24 57.17 57.17 56.95 56.52 56.09 55.59 54.94 54.15 53.36 52.43 51.02 49.92 48.94 47.75 46.22 45.23 44.63 44.22 43.64 43.43 43.53 43.94 44.53 43.68 42.95 42.51 42.36 41.96 41.98 42.44 43.08 43.30 43.37 43.34 43.20 43.11 43.11 43.01 43.02 43.15 42.23 40.37 38.45 37.92 37.95 38.26 38.65 38.69 38.48 38.61 39.71 41.74 42.18 41.94 41.53 41.45 41.24 41.19 40.91 40.68 40.52 40.20 39.93 40.07 40.30 40.67 41.02 41.32
56.88 56.81 56.52 55.95 55.23 54.72 54.00 52.72 51.22 49.73 48.46 47.48 46.92 46.19 45.34 44.34 43.75 43.24 42.86 42.63 42.64 42.87 43.39 44.17 43.37 42.72 42.35 42.18 42.34 42.83 43.29 43.55 43.55 43.61 43.54 43.35 43.12 43.21 43.16 43.00 42.42 40.77 38.82 37.82 38.01 38.18 38.48 38.65 38.56 38.25 38.06 38.16 40.30 41.19 41.29 40.89 40.64 40.44 40.35 40.30 40.22 40.10 40.09 40.05 40.32 40.64 40.90 41.00 41.23
56.52 55.80 54.79 53.63 52.62 51.53 50.30 48.95 47.87 46.84 46.03 45.60 45.05 44.50 43.87 43.29 42.87 42.48 42.30 42.10 42.27 42.68 42.96 43.11 42.50 42.04 41.94 42.47 43.08 43.42 43.64 43.76 43.79 43.77 43.61 43.11 42.76 42.68 42.58 42.09 41.61 40.54 39.07 37.47 37.95 38.31 38.65 38.69 38.56 38.22 37.71 37.16 38.46 39.77 40.72 40.57 40.36 40.16 39.99 39.86 40.00 40.15 40.25 40.47 40.69 40.83 40.93 41.08 41.34
54.50 53.49 52.55 51.44 50.52 49.42 48.28 47.19 46.54 45.97 45.48 45.13 44.55 43.95 43.23 42.74 42.50 42.47 42.60 42.63 42.62 42.47 42.35 42.38 41.85 41.90 42.26 42.99 43.57 43.67 43.67 43.74 43.89 43.69 43.30 42.86 41.88 41.91 42.13 41.56 41.65 40.85 39.32 37.32 37.93 38.34 38.56 38.74 38.57 38.28 37.77 36.85 37.75 39.34 40.59 40.49 40.17 39.89 39.73 39.71 40.04 40.37 40.78 40.96 41.03 41.21 41.30 41.45 41.51
52.45 51.42 50.85 50.02 49.35 48.38 47.44 46.71 46.10 45.58 45.17 44.71 44.55 44.22 43.68 43.23 43.08 43.13 43.35 43.43 43.30 43.13 42.91 42.64 42.25 42.25 42.65 43.55 43.81 43.90 43.81 43.75 43.60 43.20 42.74 42.21 42.06 41.88 41.70 41.53 41.98 41.18 39.45 37.45 37.92 38.37 38.55 38.69 38.62 38.42 37.82 36.93 37.57 39.28 40.62 40.28 39.97 39.74 39.69 39.92 40.22 40.71 41.00 41.09 41.25 41.56 41.72 41.88 42.01
51.81 51.13 50.49 49.76 49.20 48.35 47.60 47.06 46.54 45.97 45.54 45.08 45.17 45.10 44.91 44.58 44.58 44.36 44.19 43.98 44.00 44.00 43.95 43.78 43.09 42.72 42.73 43.31 43.48 43.67 43.66 43.50 43.00 42.15 41.40 41.27 41.39 41.58 41.77 41.57 42.39 41.44 39.55 37.89 38.17 38.45 38.50 38.69 38.67 38.39 37.75 36.60 37.73 39.32 40.31 39.97 39.66 39.74 39.93 40.32 40.78 41.11 41.53 41.66 41.74 41.87 42.14 42.41 42.55
51.60 51.16 50.72 50.14 49.58 48.79 48.24 47.72 47.19 46.79 46.33 45.74 45.75 45.73 45.75 45.67 45.44 45.05 44.64 44.30 44.62 44.72 44.85 44.83 44.00 43.50 43.24 43.53 43.69 43.52 42.98 42.33 42.20 41.80 41.32 41.08 41.37 41.65 41.90 42.10 42.64 41.48 39.64 38.38 38.57 38.62 38.77 38.75 38.66 38.39 37.67 36.24 37.80 39.07 39.72 39.69 39.74 40.01 40.33 40.75 41.20 41.66 41.84 42.18 42.30 42.54 42.73 42.90 42.83
51.44 51.01 50.65 50.28 49.73 49.09 48.32 47.67 47.21 46.72 46.16 45.68 45.70 46.08 46.24 46.40 46.08 45.79 45.42 44.87 44.97 45.33 45.71 45.66 44.80 44.22 44.00 44.04 43.92 43.36 42.49 41.64 41.44 41.24 41.03 41.22 41.68 41.94 42.14 42.51 42.93 41.35 39.24 38.70 38.84 38.81 38.88 38.83 38.52 38.06 37.41 36.56 38.37 39.36 39.98 40.04 40.29 40.57 40.80 40.95 41.29 41.78 42.24 42.61 42.84 43.19 43.33 43.39 43.18
51.31 51.00 50.67 50.45 50.08 49.38 48.55 47.69 47.06 46.64 46.18 45.88 45.88 46.15 46.51 46.82 46.92 46.86 46.34 45.34 45.40 45.64 45.87 45.81 45.19 44.64 44.15 43.77 43.23 42.40 41.58 41.16 41.09 41.21 41.53 41.69 42.22 42.51 42.84 43.21 43.41 41.54 39.31 38.88 38.89 38.91 38.86 38.64 38.28 37.47 37.00 37.46 39.06 40.05 40.58 40.71 40.80 41.01 41.20 41.32 41.57 42.02 42.60 43.08 43.41 43.55 43.71 43.66 43.34
51.33 51.12 50.81 50.66 50.26 49.47 48.72 47.99 47.32 46.79 46.35 46.36 46.41 46.52 46.85 47.22 47.55 47.56 47.16 45.94 45.84 45.51 45.35 45.37 45.17 44.63 43.88 43.08 42.23 41.64 41.40 41.46 41.64 41.94 42.18 42.31 42.68 42.89 43.22 43.37 43.70 42.20 40.11 38.94 38.86 38.84 38.75 38.58 37.78 36.97 36.89 38.42 40.05 40.69 41.01 41.07 41.04 41.21 41.37 41.56 41.90 42.43 43.04 43.33 43.65 43.77 43.74 43.51 42.74
51.50 51.21 50.93 50.57 50.17 49.53 48.81 48.21 47.56 47.13 46.90 46.97 47.11 47.26 47.53 47.67 47.83 47.63 46.97 45.27 45.52 45.35 45.04 45.08 44.66 44.21 43.46 42.58 41.86 41.78 42.07 42.43 42.56 42.84 43.05 43.13 43.18 43.30 43.30 43.35 43.56 42.84 41.30 39.40 38.90 38.57 38.31 37.93 37.15 36.56 36.95 38.91 40.55 41.12 41.11 41.01 41.03 41.05 41.13 41.48 41.98 42.58 43.08 43.23 43.35 43.33 43.24 42.88 40.60
51.59 51.26 50.96 50.61 50.24 49.58 48.88 48.16 47.77 47.56 47.50 47.60 47.70 47.83 47.91 47.97 47.88 47.36 46.45 45.03 45.63 45.75 45.30 44.71 43.99 43.57 42.95 41.97 41.97 42.27 42.77 43.30 43.43 43.54 43.64 43.76 43.55 43.00 42.72 43.20 43.37 42.90 41.76 39.67 38.58 37.93 37.49 37.14 36.88 36.47 36.87 38.74 40.69 41.36 41.23 40.88 40.70 40.76 41.01 41.36 41.71 42.24 42.73 42.91 43.00 42.89 42.68 42.48 39.39
51.73 51.39 51.12 50.76 50.30 49.70 49.01 48.22 48.06 48.11 48.25 48.24 48.21 48.12 47.98 47.79 47.02 46.32 45.68 45.03 45.95 45.90 45.20 43.96 43.42 43.15 42.69 41.76 42.43 43.12 43.48 43.81 44.24 44.13 43.81 43.72 43.25 42.23 41.66 42.93 43.28 43.08 41.92 39.63 37.85 37.07 36.81 36.84 36.92 36.85 37.33 39.10 40.87 41.41 41.24 40.77 40.50 40.51 40.64 41.05 41.32 41.62 41.91 42.43 42.70 42.60 42.43 42.40 40.22
51.84 51.51 50.96 50.71 50.38 49.81 49.24 48.54 48.51 48.56 48.72 48.72 48.38 47.91 47.17 46.46 45.90 45.48 45.26 45.38 45.63 45.30 44.60 43.51 43.37 43.35 43.06 42.15 43.06 43.58 43.72 43.47 44.06 44.31 44.02 43.34 42.94 41.94 41.63 42.88 43.32 43.47 42.80 40.85 38.22 37.03 36.89 37.13 37.39 37.43 37.71 38.85 40.49 41.05 40.97 40.62 40.26 40.23 40.40 40.81 41.03 41.22 41.40 41.76 42.26 42.28 42.21 42.14 41.71
MSLP
1018.71 1018.99 1019.23 1019.43 1019.59 1019.79 1019.99 1020.23 1020.35 1020.55 1020.75 1020.87 1021.15 1021.43 1021.71 1021.99 1022.19 1022.43 1022.71 1022.91 1023.11 1023.27 1023.47 1023.71 1023.87 1024.07 1024.23 1024.43 1024.67 1024.99 1025.27 1025.43 1025.43 1025.43 1025.51 1025.55 1025.67 1025.83 1026.03 1026.23 1026.43 1026.63 1026.75 1026.83 1026.99 1027.03 1027.07 1027.15 1027.15 1027.23 1027.31 1027.39 1027.43 1027.55 1027.63 1027.71 1027.71 1027.71 1027.71 1027.79 1027.83 1027.91 1027.99 1027.99 1027.99 1028.03 1028.07 1028.07 1028.07
1018.55 1018.79 1019.07 1019.31 1019.47 1019.63 1019.83 1020.11 1020.27 1020.43 1020.59 1020.75 1020.99 1021.27 1021.51 1021.71 1021.91 1022.15 1022.43 1022.63 1022.83 1023.07 1023.27 1023.55 1023.71 1023.91 1024.11 1024.43 1024.75 1025.11 1025.27 1025.35 1025.35 1025.35 1025.39 1025.43 1025.59 1025.71 1025.87 1026.11 1026.27 1026.47 1026.59 1026.71 1026.83 1026.91 1026.95 1026.99 1027.07 1027.11 1027.15 1027.27 1027.35 1027.43 1027.51 1027.55 1027.55 1027.59 1027.63 1027.63 1027.71 1027.83 1027.87 1027.87 1027.95 1028.03 1028.07 1028.03 1028.03
1018.31 1018.59 1018.87 1019.15 1019.27 1019.43 1019.63 1019.87 1020.03 1020.19 1020.39 1020.55 1020.83 1021.11 1021.35 1021.51 1021.71 1021.95 1022.15 1022.39 1022.59 1022.83 1023.11 1023.35 1023.55 1023.83 1024.11 1024.47 1024.87 1025.15 1025.27 1025.27 1025.23 1025.19 1025.23 1025.31 1025.47 1025.59 1025.75 1025.95 1026.15 1026.31 1026.47 1026.59 1026.71 1026.83 1026.87 1026.95 1026.99 1027.07 1027.11 1027.15 1027.19 1027.27 1027.31 1027.39 1027.43 1027.47 1027.51 1027.55 1027.63 1027.71 1027.79 1027.79 1027.83 1027.95 1027.99 1027.99 1027.99
1018.11 1018.39 1018.63 1018.83 1018.95 1019.11 1019.27 1019.55 1019.71 1019.91 1020.11 1020.35 1020.63 1020.95 1021.15 1021.27 1021.51 1021.71 1021.95 1022.19 1022.47 1022.71 1022.91 1023.11 1023.39 1023.71 1024.11 1024.55 1024.87 1025.07 1025.15 1025.15 1025.11 1025.07 1025.15 1025.19 1025.35 1025.51 1025.67 1025.83 1025.99 1026.15 1026.35 1026.51 1026.63 1026.71 1026.83 1026.91 1026.99 1027.03 1027.03 1026.99 1027.03 1027.07 1027.15 1027.27 1027.35 1027.43 1027.47 1027.55 1027.59 1027.67 1027.67 1027.71 1027.79 1027.83 1027.87 1027.87 1027.91
1017.83 1018.07 1018.31 1018.51 1018.67 1018.83 1018.99 1019.23 1019.47 1019.71 1019.87 1020.11 1020.43 1020.71 1020.95 1021.11 1021.27 1021.51 1021.75 1021.99 1022.27 1022.47 1022.71 1022.95 1023.27 1023.71 1024.15 1024.55 1024.75 1024.91 1024.99 1024.99 1024.99 1024.99 1024.99 1025.11 1025.23 1025.39 1025.55 1025.71 1025.83 1026.03 1026.27 1026.43 1026.55 1026.71 1026.79 1026.83 1026.91 1026.95 1026.95 1026.95 1026.95 1026.99 1027.07 1027.19 1027.27 1027.35 1027.43 1027.47 1027.55 1027.59 1027.63 1027.63 1027.71 1027.79 1027.83 1027.83 1027.83
1017.55 1017.83 1018.07 1018.31 1018.47 1018.67 1018.83 1019.03 1019.27 1019.47 1019.67 1019.91 1020.19 1020.43 1020.63 1020.83 1021.03 1021.23 1021.43 1021.71 1021.99 1022.23 1022.51 1022.83 1023.23 1023.67 1024.11 1024.43 1024.59 1024.71 1024.79 1024.83 1024.83 1024.87 1024.95 1025.03 1025.19 1025.35 1025.51 1025.67 1025.79 1025.99 1026.15 1026.35 1026.51 1026.67 1026.75 1026.79 1026.83 1026.83 1026.87 1026.83 1026.83 1026.95 1027.03 1027.15 1027.23 1027.23 1027.27 1027.35 1027.47 1027.55 1027.55 1027.55 1027.59 1027.67 1027.71 1027.71 1027.71
1017.35 1017.63 1017.91 1018.15 1018.31 1018.47 1018.67 1018.87 1019.15 1019.31 1019.51 1019.71 1019.91 1020.11 1020.27 1020.51 1020.71 1020.91 1021.15 1021.43 1021.71 1022.03 1022.35 1022.75 1023.15 1023.55 1023.87 1024.15 1024.35 1024.47 1024.55 1024.63 1024.71 1024.75 1024.83 1024.99 1025.15 1025.27 1025.43 1025.59 1025.71 1025.87 1026.07 1026.27 1026.43 1026.55 1026.71 1026.71 1026.71 1026.71 1026.79 1026.83 1026.83 1026.91 1026.99 1027.11 1027.11 1027.11 1027.15 1027.23 1027.35 1027.43 1027.43 1027.43 1027.55 1027.59 1027.63 1027.59 1027.59
1017.15 1017.43 1017.71 1017.95 1018.11 1018.27 1018.43 1018.67 1018.95 1019.15 1019.35 1019.51 1019.67 1019.83 1020.03 1020.23 1020.43 1020.67 1020.91 1021.19 1021.47 1021.75 1022.11 1022.55 1022.95 1023.27 1023.59 1023.83 1024.07 1024.23 1024.31 1024.43 1024.51 1024.63 1024.75 1024.91 1025.07 1025.23 1025.35 1025.55 1025.67 1025.79 1025.99 1026.15 1026.27 1026.43 1026.55 1026.55 1026.59 1026.59 1026.71 1026.79 1026.83 1026.87 1026.99 1027.03 1027.03 1026.99 1026.99 1027.11 1027.19 1027.31 1027.39 1027.43 1027.47 1027.51 1027.47 1027.51 1027.51
1016.99 1017.23 1017.51 1017.79 1017.99 1018.11 1018.27 1018.47 1018.71 1018.91 1019.11 1019.27 1019.43 1019.67 1019.87 1020.11 1020.27 1020.51 1020.71 1020.91 1021.15 1021.51 1021.95 1022.35 1022.71 1023.03 1023.31 1023.55 1023.79 1023.95 1024.07 1024.19 1024.31 1024.47 1024.63 1024.79 1024.95 1025.11 1025.27 1025.43 1025.55 1025.71 1025.83 1026.03 1026.15 1026.27 1026.39 1026.43 1026.47 1026.55 1026.63 1026.79 1026.83 1026.83 1026.91 1026.99 1026.99 1026.99 1026.99 1026.99 1027.03 1027.15 1027.27 1027.31 1027.39 1027.39 1027.35 1027.39 1027.43
1016.71 1016.99 1017.27 1017.59 1017.83 1017.99 1018.11 1018.39 1018.59 1018.75 1018.91 1019.11 1019.31 1019.55 1019.79 1020.07 1020.23 1020.39 1020.51 1020.63 1020.91 1021.35 1021.79 1022.11 1022.47 1022.79 1023.03 1023.31 1023.51 1023.67 1023.79 1023.91 1024.07 1024.23 1024.43 1024.67 1024.79 1024.91 1025.07 1025.23 1025.39 1025.55 1025.71 1025.87 1026.03 1026.15 1026.27 1026.35 1026.39 1026.43 1026.59 1026.79 1026.83 1026.87 1026.95 1026.99 1027.03 1027.03 1027.03 1026.99 1026.99 1027.03 1027.11 1027.15 1027.23 1027.23 1027.23 1027.27 1027.31
1016.43 1016.71 1016.99 1017.31 1017.63 1017.83 1017.99 1018.27 1018.47 1018.63 1018.83 1018.99 1019.27 1019.47 1019.71 1019.99 1020.19 1020.27 1020.35 1020.55 1020.87 1021.23 1021.55 1021.83 1022.19 1022.47 1022.75 1023.03 1023.23 1023.39 1023.51 1023.67 1023.83 1023.99 1024.15 1024.39 1024.55 1024.75 1024.87 1025.03 1025.19 1025.35 1025.51 1025.71 1025.83 1025.99 1026.11 1026.19 1026.27 1026.39 1026.55 1026.75 1026.83 1026.91 1026.99 1027.03 1027.07 1027.07 1027.03 1026.99 1026.95 1026.95 1026.99 1026.99 1027.07 1027.07 1027.07 1027.15 1027.19
1016.27 1016.55 1016.83 1017.07 1017.39 1017.63 1017.83 1017.99 1018.23 1018.43 1018.59 1018.83 1019.07 1019.35 1019.59 1019.87 1020.07 1020.19 1020.31 1020.55 1020.79 1021.03 1021.35 1021.63 1021.91 1022.15 1022.43 1022.71 1022.91 1023.11 1023.27 1023.43 1023.55 1023.75 1023.95 1024.11 1024.35 1024.55 1024.71 1024.87 1025.03 1025.15 1025.31 1025.55 1025.71 1025.83 1025.95 1026.03 1026.15 1026.31 1026.47 1026.67 1026.79 1026.87 1026.95 1027.03 1027.03 1027.07 1027.03 1026.99 1026.91 1026.87 1026.87 1026.87 1026.91 1026.91 1026.87 1026.91 1026.99
1016.11 1016.43 1016.67 1016.91 1017.19 1017.43 1017.63 1017.79 1017.99 1018.15 1018.39 1018.63 1018.83 1019.07 1019.39 1019.71 1019.91 1020.11 1020.27 1020.47 1020.63 1020.83 1021.11 1021.43 1021.63 1021.87 1022.11 1022.31 1022.55 1022.79 1022.99 1023.19 1023.35 1023.55 1023.71 1023.95 1024.15 1024.39 1024.55 1024.71 1024.87 1024.99 1025.15 1025.35 1025.55 1025.71 1025.79 1025.87 1026.03 1026.23 1026.43 1026.55 1026.67 1026.75 1026.83 1026.95 1026.99 1026.99 1026.95 1026.87 1026.79 1026.71 1026.71 1026.71 1026.75 1026.75 1026.75 1026.75 1026.83
1015.95 1016.23 1016.47 1016.71 1016.99 1017.27 1017.47 1017.63 1017.79 1017.95 1018.15 1018.39 1018.55 1018.83 1019.11 1019.43 1019.71 1019.91 1020.11 1020.31 1020.51 1020.67 1020.83 1021.15 1021.43 1021.63 1021.79 1021.99 1022.19 1022.43 1022.67 1022.91 1023.11 1023.27 1023.51 1023.71 1023.95 1024.15 1024.39 1024.59 1024.71 1024.87 1025.03 1025.19 1025.43 1025.55 1025.67 1025.75 1025.95 1026.11 1026.31 1026.43 1026.55 1026.63 1026.71 1026.83 1026.87 1026.83 1026.75 1026.71 1026.63 1026.55 1026.55 1026.55 1026.55 1026.59 1026.63 1026.67 1026.67
1015.79 1015.99 1016.23 1016.47 1016.75 1016.99 1017.19 1017.35 1017.51 1017.71 1017.91 1018.11 1018.27 1018.55 1018.83 1019.15 1019.43 1019.71 1019.95 1020.11 1020.27 1020.43 1020.59 1020.83 1021.15 1021.35 1021.55 1021.71 1021.91 1022.15 1022.43 1022.67 1022.87 1023.07 1023.27 1023.47 1023.75 1023.99 1024.23 1024.43 1024.63 1024.79 1024.91 1025.07 1025.31 1025.51 1025.63 1025.71 1025.91 1026.11 1026.23 1026.35 1026.43 1026.51 1026.63 1026.71 1026.71 1026.71 1026.59 1026.51 1026.43 1026.39 1026.35 1026.35 1026.39 1026.43 1026.47 1026.51 1026.47
1015.55 1015.75 1015.99 1016.23 1016.47 1016.67 1016.83 1017.03 1017.19 1017.39 1017.59 1017.83 1018.03 1018.27 1018.55 1018.83 1019.15 1019.43 1019.71 1019.91 1020.03 1020.19 1020.35 1020.55 1020.75 1021.03 1021.31 1021.55 1021.75 1021.99 1022.23 1022.47 1022.71 1022.87 1023.03 1023.23 1023.51 1023.75 1024.03 1024.27 1024.51 1024.67 1024.75 1024.95 1025.19 1025.43 1025.63 1025.75 1025.95 1026.07 1026.15 1026.23 1026.31 1026.43 1026.55 1026.59 1026.55 1026.47 1026.39 1026.27 1026.27 1026.19 1026.11 1026.11 1026.11 1026.15 1026.23 1026.27 1026.27
1015.23 1015.47 1015.71 1015.91 1016.11 1016.31 1016.51 1016.71 1016.87 1017.11 1017.31 1017.51 1017.75 1018.03 1018.27 1018.55 1018.83 1019.15 1019.43 1019.59 1019.71 1019.83 1020.03 1020.27 1020.51 1020.75 1021.07 1021.31 1021.59 1021.83 1022.07 1022.27 1022.47 1022.63 1022.79 1022.99 1023.23 1023.51 1023.79 1024.07 1024.31 1024.47 1024.59 1024.75 1025.03 1025.31 1025.55 1025.75 1025.99 1026.07 1026.11 1026.15 1026.27 1026.43 1026.47 1026.43 1026.31 1026.23 1026.11 1026.11 1026.03 1025.99 1025.95 1025.91 1025.87 1025.91 1025.99 1025.99 1026.03
1014.91 1015.15 1015.35 1015.55 1015.75 1015.95 1016.15 1016.39 1016.59 1016.83 1017.07 1017.23 1017.51 1017.79 1018.03 1018.27 1018.55 1018.83 1019.15 1019.27 1019.43 1019.55 1019.71 1019.99 1020.27 1020.55 1020.79 1021.07 1021.35 1021.63 1021.83 1022.07 1022.23 1022.43 1022.59 1022.79 1023.03 1023.27 1023.55 1023.83 1024.07 1024.27 1024.43 1024.63 1024.87 1025.15 1025.43 1025.67 1025.83 1025.99 1026.07 1026.15 1026.35 1026.47 1026.43 1026.27 1026.07 1025.95 1025.91 1025.87 1025.83 1025.83 1025.79 1025.75 1025.71 1025.71 1025.71 1025.75 1025.75
1014.55 1014.75 1014.95 1015.15 1015.31 1015.55 1015.79 1016.07 1016.35 1016.59 1016.83 1017.07 1017.31 1017.55 1017.83 1018.07 1018.31 1018.55 1018.83 1019.07 1019.23 1019.35 1019.55 1019.83 1020.11 1020.39 1020.63 1020.87 1021.15 1021.43 1021.71 1021.83 1022.03 1022.23 1022.43 1022.67 1022.95 1023.19 1023.43 1023.63 1023.91 1024.11 1024.27 1024.47 1024.71 1024.99 1025.27 1025.55 1025.71 1025.83 1025.99 1026.19 1026.43 1026.47 1026.35 1026.11 1025.87 1025.75 1025.71 1025.67 1025.67 1025.63 1025.59 1025.59 1025.55 1025.55 1025.51 1025.51 1025.55
1014.19 1014.39 1014.55 1014.71 1014.95 1015.19 1015.47 1015.79 1016.07 1016.39 1016.71 1016.99 1017.23 1017.43 1017.67 1017.91 1018.11 1018.39 1018.63 1018.83 1019.11 1019.27 1019.43 1019.71 1019.99 1020.27 1020.55 1020.79 1021.03 1021.31 1021.55 1021.71 1021.91 1022.11 1022.35 1022.59 1022.87 1023.11 1023.31 1023.55 1023.75 1023.91 1024.11 1024.27 1024.55 1024.87 1025.15 1025.39 1025.55 1025.75 1025.99 1026.27 1026.43 1026.35 1026.11 1025.87 1025.71 1025.63 1025.55 1025.51 1025.47 1025.43 1025.43 1025.43 1025.39 1025.35 1025.31 1025.31 1025.35
1013.83 1013.99 1014.19 1014.39 1014.67 1014.95 1015.27 1015.55 1015.91 1016.27 1016.55 1016.87 1017.15 1017.31 1017.55 1017.79 1018.03 1018.23 1018.47 1018.71 1019.03 1019.27 1019.43 1019.67 1019.91 1020.19 1020.43 1020.71 1020.95 1021.23 1021.47 1021.71 1021.87 1022.07 1022.27 1022.55 1022.83 1022.99 1023.27 1023.51 1023.63 1023.75 1023.95 1024.15 1024.43 1024.75 1024.99 1025.19 1025.43 1025.71 1026.03 1026.27 1026.27 1026.11 1025.91 1025.71 1025.55 1025.47 1025.43 1025.39 1025.31 1025.27 1025.27 1025.23 1025.19 1025.15 1025.15 1025.15 1025.15
1013.55 1013.71 1013.99 1014.27 1014.55 1014.87 1015.19 1015.51 1015.83 1016.15 1016.47 1016.75 1016.99 1017.23 1017.47 1017.71 1017.91 1018.11 1018.39 1018.71 1019.03 1019.27 1019.47 1019.71 1019.91 1020.15 1020.39 1020.63 1020.91 1021.19 1021.47 1021.75 1021.91 1022.07 1022.27 1022.51 1022.71 1022.99 1023.27 1023.43 1023.51 1023.59 1023.75 1023.99 1024.27 1024.55 1024.79 1025.07 1025.43 1025.75 1026.03 1026.11 1025.99 1025.79 1025.59 1025.47 1025.39 1025.31 1025.27 1025.19 1025.15 1025.07 1025.03 1024.99 1024.99 1024.99 1024.99 1024.99 1024.99
1013.39 1013.63 1013.87 1014.19 1014.51 1014.83 1015.15 1015.43 1015.71 1015.99 1016.23 1016.51 1016.79 1017.03 1017.27 1017.55 1017.79 1018.07 1018.35 1018.71 1019.03 1019.31 1019.59 1019.83 1020.03 1020.19 1020.43 1020.67 1020.95 1021.27 1021.55 1021.79 1021.99 1022.11 1022.27 1022.51 1022.79 1023.07 1023.27 1023.35 1023.43 1023.51 1023.63 1023.83 1024.03 1024.31 1024.67 1024.99 1025.43 1025.75 1025.95 1025.91 1025.71 1025.47 1025.31 1025.27 1025.19 1025.15 1025.11 1024.99 1024.91 1024.83 1024.79 1024.75 1024.71 1024.75 1024.75 1024.75 1024.79
1013.39 1013.59 1013.83 1014.03 1014.35 1014.67 1014.95 1015.19 1015.43 1015.71 1015.95 1016.19 1016.51 1016.79 1017.07 1017.35 1017.67 1017.99 1018.39 1018.71 1019.07 1019.43 1019.71 1019.99 1020.23 1020.43 1020.59 1020.83 1021.03 1021.27 1021.55 1021.75 1021.95 1022.11 1022.31 1022.63 1022.95 1023.15 1023.19 1023.27 1023.31 1023.39 1023.51 1023.71 1023.91 1024.23 1024.55 1024.95 1025.35 1025.63 1025.71 1025.67 1025.43 1025.19 1025.07 1024.99 1024.99 1024.99 1024.91 1024.87 1024.79 1024.71 1024.63 1024.55 1024.51 1024.51 1024.51 1024.51 1024.51
1013.31 1013.51 1013.67 1013.83 1014.11 1014.39 1014.67 1014.91 1015.15 1015.43 1015.71 1015.95 1016.23 1016.55 1016.87 1017.19 1017.55 1017.99 1018.39 1018.83 1019.27 1019.59 1019.91 1020.19 1020.47 1020.71 1020.91 1021.07 1021.19 1021.39 1021.55 1021.67 1021.79 1022.03 1022.39 1022.75 1022.99 1023.11 1023.15 1023.15 1023.23 1023.27 1023.39 1023.67 1023.99 1024.27 1024.47 1024.83 1025.23 1025.43 1025.47 1025.35 1025.11 1024.95 1024.83 1024.83 1024.83 1024.83 1024.83 1024.79 1024.71 1024.63 1024.51 1024.43 1024.35 1024.31 1024.31 1024.27 1024.27
1013.23 1013.39 1013.51 1013.71 1013.91 1014.15 1014.43 1014.71 1014.99 1015.23 1015.47 1015.75 1015.99 1016.31 1016.71 1017.11 1017.55 1017.99 1018.47 1018.91 1019.35 1019.75 1020.11 1020.47 1020.79 1021.03 1021.23 1021.31 1021.39 1021.47 1021.55 1021.67 1021.83 1022.15 1022.51 1022.75 1022.91 1022.95 1022.99 1023.03 1023.11 1023.19 1023.39 1023.71 1024.03 1024.19 1024.39 1024.71 1025.15 1025.31 1025.31 1025.15 1024.99 1024.83 1024.75 1024.71 1024.71 1024.71 1024.71 1024.67 1024.59 1024.55 1024.43 1024.31 1024.23 1024.15 1024.11 1024.03 1023.99
1013.03 1013.23 1013.39 1013.55 1013.75 1014.03 1014.31 1014.59 1014.83 1015.15 1015.35 1015.59 1015.91 1016.27 1016.67 1017.15 1017.55 1017.99 1018.43 1018.83 1019.35 1019.87 1020.31 1020.71 1020.99 1021.27 1021.43 1021.51 1021.51 1021.55 1021.63 1021.75 1021.99 1022.23 1022.43 1022.59 1022.71 1022.75 1022.79 1022.83 1022.91 1023.15 1023.43 1023.71 1023.91 1024.03 1024.27 1024.67 1025.03 1025.23 1025.27 1025.15 1024.99 1024.91 1024.83 1024.71 1024.67 1024.59 1024.55 1024.51 1024.47 1024.43 1024.31 1024.19 1024.11 1023.99 1023.91 1023.83 1023.71
1012.91 1013.11 1013.27 1013.47 1013.71 1013.95 1014.19 1014.51 1014.83 1015.11 1015.39 1015.71 1015.99 1016.27 1016.63 1017.07 1017.43 1017.79 1018.19 1018.71 1019.27 1019.83 1020.27 1020.63 1020.99 1021.27 1021.43 1021.55 1021.55 1021.55 1021.59 1021.71 1021.91 1022.11 1022.27 1022.35 1022.43 1022.51 1022.55 1022.59 1022.75 1023.07 1023.43 1023.55 1023.71 1023.83 1024.11 1024.55 1024.87 1025.07 1025.15 1025.11 1024.99 1024.91 1024.83 1024.75 1024.63 1024.55 1024.43 1024.35 1024.27 1024.19 1024.11 1023.99 1023.87 1023.75 1023.63 1023.51 1023.43
1012.75 1012.95 1013.15 1013.43 1013.63 1013.91 1014.19 1014.51 1014.83 1015.19 1015.51 1015.83 1016.03 1016.31 1016.59 1016.95 1017.19 1017.51 1017.91 1018.39 1018.87 1019.35 1019.75 1020.11 1020.55 1020.83 1021.07 1021.23 1021.31 1021.35 1021.43 1021.51 1021.67 1021.83 1022.03 1022.11 1022.19 1022.27 1022.31 1022.43 1022.67 1022.99 1023.27 1023.43 1023.51 1023.71 1023.99 1024.43 1024.71 1024.83 1024.99 1024.99 1024.95 1024.83 1024.75 1024.63 1024.51 1024.39 1024.27 1024.11 1023.99 1023.91 1023.83 1023.71 1023.55 1023.47 1023.35 1023.23 1023.15
1012.59 1012.83 1013.15 1013.43 1013.71 1014.03 1014.35 1014.63 1014.95 1015.31 1015.63 1015.95 1016.19 1016.43 1016.63 1016.87 1017.11 1017.31 1017.59 1017.95 1018.31 1018.71 1019.07 1019.43 1019.83 1020.11 1020.31 1020.51 1020.71 1020.91 1021.03 1021.15 1021.31 1021.55 1021.71 1021.83 1021.91 1021.99 1022.11 1022.31 1022.63 1022.95 1023.15 1023.27 1023.27 1023.55 1023.91 1024.31 1024.51 1024.63 1024.71 1024.83 1024.83 1024.79 1024.67 1024.51 1024.35 1024.19 1024.03 1023.87 1023.75 1023.63 1023.51 1023.39 1023.27 1023.15 1023.03 1022.95 1022.83
1012.67 1012.95 1013.23 1013.55 1013.87 1014.23 1014.55 1014.83 1015.15 1015.43 1015.71 1015.99 1016.19 1016.43 1016.71 1016.95 1017.15 1017.27 1017.47 1017.71 1017.99 1018.35 1018.71 1019.03 1019.27 1019.43 1019.55 1019.83 1020.11 1020.35 1020.55 1020.75 1020.99 1021.23 1021.39 1021.51 1021.67 1021.79 1021.99 1022.31 1022.51 1022.75 1022.95 1023.11 1023.15 1023.43 1023.79 1024.11 1024.27 1024.39 1024.43 1024.55 1024.59 1024.55 1024.47 1024.31 1024.15 1023.99 1023.83 1023.67 1023.51 1023.39 1023.27 1023.07 1022.99 1022.87 1022.75 1022.67 1022.55
1012.79 1013.11 1013.39 1013.71 1013.99 1014.35 1014.71 1014.99 1015.23 1015.47 1015.67 1015.87 1016.11 1016.43 1016.67 1016.91 1017.15 1017.35 1017.55 1017.71 1017.99 1018.31 1018.59 1018.83 1018.99 1019.15 1019.27 1019.51 1019.75 1019.99 1020.23 1020.47 1020.71 1020.99 1021.15 1021.31 1021.51 1021.71 1021.95 1022.23 1022.35 1022.55 1022.75 1022.91 1023.03 1023.35 1023.71 1023.95 1024.11 1024.19 1024.27 1024.31 1024.39 1024.35 1024.27 1024.11 1023.99 1023.83 1023.63 1023.47 1023.31 1023.15 1023.03 1022.87 1022.75 1022.59 1022.47 1022.39 1022.27
1012.83 1013.15 1013.43 1013.71 1013.99 1014.35 1014.71 1014.95 1015.19 1015.43 1015.67 1015.83 1016.03 1016.27 1016.51 1016.75 1017.07 1017.39 1017.63 1017.83 1017.99 1018.15 1018.35 1018.55 1018.75 1018.99 1019.15 1019.39 1019.55 1019.79 1020.03 1020.27 1020.55 1020.83 1021.07 1021.27 1021.43 1021.59 1021.83 1022.11 1022.23 1022.39 1022.59 1022.71 1022.91 1023.23 1023.55 1023.75 1023.83 1023.91 1023.99 1024.11 1024.11 1024.07 1023.99 1023.87 1023.71 1023.55 1023.43 1023.19 1023.03 1022.87 1022.75 1022.67 1022.51 1022.35 1022.19 1022.11 1021.99
1012.83 1013.15 1013.39 1013.63 1013.95 1014.27 1014.55 1014.83 1015.15 1015.39 1015.59 1015.79 1015.99 1016.15 1016.39 1016.67 1016.99 1017.27 1017.47 1017.63 1017.79 1017.91 1017.99 1018.15 1018.43 1018.71 1018.99 1019.15 1019.35 1019.55 1019.83 1020.11 1020.43 1020.71 1020.99 1021.15 1021.35 1021.55 1021.71 1021.87 1021.95 1022.15 1022.43 1022.51 1022.75 1023.07 1023.35 1023.55 1023.63 1023.71 1023.79 1023.87 1023.91 1023.83 1023.71 1023.59 1023.47 1023.27 1023.11 1022.87 1022.71 1022.59 1022.47 1022.35 1022.19 1022.07 1021.91 1021.83 1021.75
1012.79 1013.03 1013.27 1013.51 1013.79 1014.11 1014.43 1014.67 1014.99 1015.23 1015.47 1015.71 1015.87 1016.11 1016.31 1016.55 1016.75 1016.95 1017.15 1017.35 1017.51 1017.63 1017.79 1017.99 1018.27 1018.55 1018.83 1018.99 1019.19 1019.39 1019.67 1019.99 1020.35 1020.59 1020.83 1021.07 1021.23 1021.43 1021.55 1021.63 1021.71 1021.95 1022.19 1022.35 1022.67 1022.95 1023.15 1023.27 1023.39 1023.47 1023.59 1023.67 1023.71 1023.59 1023.47 1023.31 1023.15 1022.99 1022.79 1022.59 1022.43 1022.27 1022.11 1021.99 1021.83 1021.71 1021.55 1021.51 1021.43
1012.67 1012.91 1013.15 1013.35 1013.59 1013.91 1014.19 1014.47 1014.75 1015.07 1015.35 1015.55 1015.75 1015.99 1016.19 1016.35 1016.55 1016.71 1016.87 1017.15 1017.27 1017.43 1017.59 1017.83 1018.11 1018.43 1018.63 1018.83 1019.07 1019.27 1019.59 1019.95 1020.27 1020.51 1020.71 1020.95 1021.07 1021.19 1021.31 1021.43 1021.55 1021.79 1021.99 1022.19 1022.51 1022.75 1022.95 1023.07 1023.15 1023.27 1023.39 1023.47 1023.43 1023.31 1023.19 1023.07 1022.87 1022.71 1022.47 1022.27 1022.11 1021.91 1021.75 1021.63 1021.47 1021.35 1021.27 1021.27 1021.23
1012.55 1012.79 1012.99 1013.23 1013.47 1013.75 1014.03 1014.31 1014.59 1014.87 1015.15 1015.39 1015.59 1015.83 1016.03 1016.19 1016.35 1016.51 1016.71 1016.91 1017.07 1017.27 1017.47 1017.71 1017.95 1018.19 1018.43 1018.67 1018.99 1019.27 1019.55 1019.87 1020.11 1020.35 1020.55 1020.75 1020.91 1020.99 1021.15 1021.27 1021.43 1021.63 1021.83 1022.11 1022.35 1022.55 1022.71 1022.79 1022.91 1023.07 1023.23 1023.27 1023.19 1023.11 1022.99 1022.83 1022.67 1022.43 1022.19 1021.95 1021.75 1021.55 1021.43 1021.27 1021.15 1021.03 1020.99 1020.99 1021.03
1012.43 1012.67 1012.91 1013.15 1013.35 1013.59 1013.91 1014.23 1014.47 1014.71 1014.99 1015.23 1015.43 1015.67 1015.87 1016.03 1016.15 1016.27 1016.51 1016.71 1016.95 1017.15 1017.31 1017.55 1017.79 1018.03 1018.31 1018.63 1018.95 1019.27 1019.55 1019.79 1019.99 1020.19 1020.39 1020.55 1020.71 1020.83 1020.95 1021.15 1021.27 1021.43 1021.67 1021.95 1022.15 1022.31 1022.43 1022.59 1022.71 1022.87 1023.03 1023.07 1022.99 1022.87 1022.75 1022.63 1022.43 1022.15 1021.91 1021.71 1021.43 1021.23 1021.07 1020.95 1020.83 1020.79 1020.71 1020.75 1020.83
1012.27 1012.55 1012.79 1012.99 1013.19 1013.47 1013.79 1014.11 1014.39 1014.63 1014.83 1015.07 1015.31 1015.51 1015.71 1015.83 1015.99 1016.15 1016.43 1016.71 1016.87 1016.99 1017.23 1017.51 1017.75 1018.03 1018.39 1018.71 1018.99 1019.27 1019.51 1019.71 1019.91 1020.11 1020.27 1020.47 1020.63 1020.75 1020.91 1021.03 1021.15 1021.27 1021.47 1021.71 1021.95 1022.11 1022.27 1022.39 1022.55 1022.71 1022.83 1022.83 1022.75 1022.67 1022.55 1022.39 1022.19 1021.95 1021.71 1021.43 1021.19 1020.99 1020.79 1020.71 1020.63 1020.55 1020.51 1020.51 1020.67
1012.15 1012.43 1012.71 1012.91 1013.15 1013.43 1013.71 1013.99 1014.27 1014.55 1014.83 1014.99 1015.15 1015.35 1015.55 1015.71 1015.95 1016.27 1016.55 1016.83 1016.91 1017.07 1017.27 1017.59 1017.87 1018.15 1018.47 1018.79 1018.99 1019.27 1019.51 1019.71 1019.91 1020.11 1020.27 1020.43 1020.59 1020.83 1020.99 1021.03 1021.11 1021.19 1021.31 1021.55 1021.75 1021.91 1022.03 1022.19 1022.35 1022.47 1022.55 1022.59 1022.51 1022.43 1022.31 1022.15 1021.91 1021.67 1021.43 1021.19 1020.99 1020.75 1020.55 1020.43 1020.39 1020.31 1020.27 1020.19 1020.35
1012.11 1012.39 1012.67 1012.91 1013.15 1013.43 1013.67 1013.95 1014.23 1014.51 1014.75 1014.99 1015.15 1015.31 1015.55 1015.87 1016.11 1016.43 1016.71 1016.95 1017.07 1017.23 1017.43 1017.71 1017.99 1018.27 1018.55 1018.83 1019.07 1019.31 1019.55 1019.79 1019.99 1020.15 1020.31 1020.43 1020.63 1020.83 1020.95 1020.99 1020.99 1021.07 1021.15 1021.35 1021.55 1021.75 1021.87 1021.99 1022.11 1022.27 1022.31 1022.31 1022.27 1022.23 1022.11 1021.91 1021.67 1021.39 1021.15 1020.91 1020.71 1020.55 1020.35 1020.15 1020.07 1019.99 1019.99 1019.95 1019.99
Wind_Speed
13 12 11 10 10 9 9 8 8 9 9 10 10 10 10 10 10 9 9 9 8 8 8 8 8 9 10 13 13 13 12 12 13 13 13 13 13 13 14 13 13 13 12 12 12 11 10 9 8 6 6 6 6 6 6 5 6 7 7 6 6 6 6 6 6 6 6 6 5
15 14 12 11 10 9 9 8 8 9 9 9 9 10 10 10 10 9 9 10 9 8 8 8 9 10 11 13 13 12 12 13 14 14 14 14 14 14 14 14 14 13 13 13 12 10 9 9 8 7 6 6 6 6 7 6 7 7 8 8 6 6 6 6 6 6 6 6 5
15 14 14 13 12 11 10 9 10 11 11 10 10 10 10 9 9 9 9 10 10 9 8 8 9 10 12 13 12 11 12 13 14 14 13 13 14 15 15 14 14 14 14 13 12 10 9 9 8 6 6 6 7 7 7 7 7 7 7 8 6 5 5 5 5 6 5 5 5
16 15 15 15 16 15 13 11 12 13 13 10 11 10 10 9 9 9 9 10 11 10 9 9 9 10 11 11 12 12 12 13 14 14 14 13 15 15 15 15 15 15 14 13 12 11 10 10 7 6 6 7 8 8 7 7 7 7 6 6 5 5 5 4 5 5 5 4 5
17 16 15 15 17 17 14 13 14 14 13 10 10 10 10 9 9 9 9 10 10 10 10 11 9 9 10 12 13 14 14 14 14 13 13 14 15 15 15 15 15 14 14 13 12 11 11 10 7 6 6 7 7 7 7 8 8 7 6 5 5 5 5 5 5 4 4 4 5
17 16 16 15 17 16 14 13 15 14 13 11 11 11 11 10 10 10 11 10 11 12 12 12 11 11 12 14 15 15 14 14 14 13 13 14 14 15 15 16 15 14 13 13 13 12 11 10 7 6 6 6 6 7 8 9 8 7 7 6 5 5 5 5 5 5 5 5 6
17 17 17 16 18 17 15 14 14 14 13 12 14 14 14 12 12 13 13 12 12 12 12 11 11 12 13 15 15 15 14 14 14 14 14 14 14 15 15 15 15 14 14 13 13 12 11 10 7 6 6 6 5 7 9 9 8 7 7 6 6 5 5 6 5 5 6 7 7
17 17 17 17 18 18 17 16 15 14 13 12 14 15 16 15 16 16 15 13 12 12 12 11 13 14 15 15 15 15 15 15 14 14 14 13 14 15 15 15 15 15 14 14 13 13 11 9 7 6 6 5 5 6 8 10 9 8 8 7 6 6 5 6 5 6 6 8 8
16 17 17 17 17 18 18 17 16 15 14 13 15 16 16 16 16 16 15 14 13 12 12 12 15 16 17 17 16 16 15 15 15 15 14 14 15 15 15 14 15 14 14 13 13 13 12 9 7 6 6 5 5 6 8 10 10 9 8 8 7 7 7 6 7 7 8 8 9
16 17 17 16 17 18 18 17 17 17 16 15 16 16 15 15 15 15 14 12 12 12 13 13 16 17 18 18 17 16 15 15 15 15 15 14 15 16 15 14 15 14 14 13 13 13 12 9 7 7 6 6 6 7 8 9 10 10 9 7 7 8 9 8 9 9 9 8 9
17 17 17 16 17 18 18 17 16 16 16 15 16 16 15 14 14 14 13 11 12 14 15 15 17 18 18 17 17 16 15 14 14 15 15 16 16 16 16 15 15 15 14 13 12 12 11 9 8 8 7 7 7 7 8 9 10 10 10 8 8 9 10 10 10 9 9 9 10
17 17 17 16 17 18 17 17 16 15 15 15 16 15 15 14 14 14 13 13 14 15 16 17 18 18 18 16 16 16 15 15 15 15 16 16 16 16 16 15 15 15 15 14 12 11 10 9 9 9 9 8 7 7 7 9 10 11 11 11 10 10 11 11 11 10 9 9 10
17 17 17 17 17 18 17 17 15 14 15 16 16 15 14 14 15 14 14 14 15 15 15 16 18 18 17 16 16 16 15 15 16 16 15 16 16 16 16 15 15 15 15 14 12 11 10 10 10 10 10 10 8 7 7 9 10 11 12 13 12 12 12 12 12 11 10 10 10
17 17 17 17 18 17 17 16 14 14 15 16 16 15 14 14 15 15 14 14 15 15 15 16 16 16 16 17 17 16 16 16 16 16 16 16 16 16 16 15 15 15 14 13 12 12 11 10 11 10 10 10 9 8 8 9 11 12 13 13 14 13 13 13 12 12 12 12 11
17 17 17 17 18 17 16 16 14 13 14 16 16 15 14 13 14 14 14 15 15 15 14 15 15 15 16 18 17 17 17 16 17 17 17 16 16 16 16 15 15 14 14 12 12 12 12 11 11 10 10 9 9 9 9 10 12 12 13 14 14 14 14 13 13 13 12 13 13
18 18 18 18 18 17 16 16 13 13 14 15 15 15 14 13 13 14 15 15 15 14 14 15 15 15 16 17 17 17 17 16 17 17 17 16 17 17 16 15 15 15 14 13 13 12 11 10 10 9 9 9 8 9 10 12 13 14 15 15 15 15 14 14 14 13 13 13 14
19 19 19 18 19 18 18 16 13 13 13 15 16 15 14 13 13 14 15 16 14 14 15 16 15 15 15 16 16 16 16 16 16 16 16 16 16 17 16 16 15 15 15 14 13 13 12 10 9 9 8 8 7 9 11 14 15 15 16 16 15 15 15 14 14 14 14 14 14
19 19 19 19 20 20 19 18 15 14 14 16 16 15 14 14 14 14 15 16 16 16 17 17 16 15 15 16 15 15 14 15 16 16 16 16 16 16 16 16 15 15 15 14 14 13 13 12 10 9 7 6 7 9 12 15 15 16 16 16 16 15 15 15 15 14 14 14 15
20 20 20 20 21 21 20 20 18 17 16 16 15 15 15 15 15 15 15 16 16 17 17 17 16 15 16 17 16 14 14 15 16 16 16 15 15 15 15 15 15 15 15 14 13 13 13 12 11 9 6 5 7 11 14 16 16 15 15 15 15 15 15 15 15 15 14 14 15
20 20 21 21 21 21 20 20 19 17 16 14 15 15 16 16 16 16 16 16 16 16 16 17 16 15 16 17 16 15 14 13 15 15 15 14 14 14 14 14 15 15 14 14 13 13 12 12 10 8 5 5 9 13 15 16 16 16 15 14 15 15 15 15 15 15 15 15 15
20 20 20 20 20 19 19 18 18 17 16 14 15 15 16 16 16 16 16 16 15 15 16 16 16 16 16 16 17 16 14 11 13 14 14 13 13 13 14 14 14 14 13 13 13 12 12 11 9 7 5 7 11 14 16 15 15 15 15 14 14 15 15 16 16 16 16 16 16
20 19 19 18 18 18 17 16 16 16 16 15 15 15 15 15 15 15 15 14 14 14 14 15 15 15 16 16 16 15 13 11 12 12 12 11 12 12 13 13 14 13 13 13 13 13 12 9 7 6 6 9 13 15 16 15 15 15 15 15 15 16 16 16 16 16 16 16 16
18 17 17 16 16 16 16 15 16 16 16 15 15 15 15 15 14 14 13 13 13 13 13 12 13 14 14 14 14 14 13 11 11 11 10 10 10 11 12 12 13 13 13 12 13 12 10 8 7 6 8 11 14 15 15 15 14 14 14 15 16 16 16 16 16 15 15 15 15
16 16 14 13 14 15 15 15 15 16 16 16 15 14 14 14 13 12 12 12 12 12 11 10 9 10 11 12 13 13 13 12 12 11 10 9 10 12 13 12 12 12 12 10 9 9 9 7 6 7 9 12 13 14 13 13 13 13 13 14 15 15 15 16 16 15 15 16 15
15 15 14 13 14 14 15 15 15 15 15 15 15 14 13 13 12 11 11 11 10 10 10 9 8 7 8 10 12 12 12 12 11 10 10 10 12 13 12 11 11 10 9 7 9 10 10 8 6 7 9 11 12 12 11 11 12 12 12 13 14 14 14 15 16 16 16 16 15
15 15 15 14 14 14 14 14 14 14 14 14 13 13 12 11 10 10 11 11 10 9 9 8 7 6 6 9 10 10 10 9 9 9 10 12 14 14 13 11 10 8 7 8 11 13 12 9 7 8 9 10 10 10 10 10 11 11 12 12 13 13 13 14 15 15 15 15 15
14 14 14 14 14 13 13 13 13 13 13 12 12 12 12 11 11 11 12 12 11 10 9 9 8 7 7 8 9 9 9 8 8 10 12 13 15 15 14 12 9 7 7 10 13 13 12 11 10 10 10 11 11 10 10 10 11 12 12 12 12 13 13 14 15 15 15 15 15
14 14 14 14 13 13 13 12 12 11 11 11 12 12 13 14 14 14 14 14 13 12 11 10 10 9 8 8 9 9 10 9 10 11 13 14 15 16 15 12 9 8 9 12 14 13 12 11 11 12 12 11 11 11 11 11 11 11 11 11 12 12 13 14 13 14 14 15 15
14 14 14 13 13 12 11 11 11 11 11 12 13 14 14 15 16 16 16 16 16 15 13 12 11 10 10 10 11 11 12 12 12 12 13 15 16 15 14 12 9 9 11 13 14 13 11 11 12 13 14 13 11 9 9 9 10 10 10 10 10 11 12 12 12 12 13 13 13
14 13 12 11 11 10 10 10 11 12 12 12 13 14 14 15 16 17 18 18 18 17 15 13 13 13 14 14 14 13 13 13 13 13 14 16 16 15 13 11 10 10 12 13 13 12 11 11 12 13 14 14 12 10 9 10 10 10 10 10 11 12 13 13 13 14 13 12 13
11 10 10 10 10 10 10 11 12 12 13 12 13 14 14 14 15 16 17 18 17 16 15 15 16 17 17 16 15 14 13 13 13 14 14 15 15 14 13 11 11 11 12 13 12 11 10 11 12 14 14 14 12 10 10 10 11 11 11 11 12 13 13 13 13 14 14 14 14
10 10 10 10 10 10 11 11 12 13 14 14 15 15 15 15 15 15 15 15 15 16 16 17 18 18 17 16 14 14 13 13 14 14 14 14 14 13 12 11 12 11 12 13 12 11 11 12 13 14 14 13 11 10 11 11 12 12 12 13 14 15 15 13 13 14 15 16 15
11 11 11 12 12 12 12 13 13 14 14 15 15 15 15 15 14 14 14 14 14 16 18 18 18 17 16 15 14 14 13 13 14 14 13 13 13 13 12 11 11 10 11 13 12 11 11 13 13 14 13 12 10 10 11 11 11 11 11 13 14 15 16 16 16 16 16 16 15
12 13 13 13 13 13 13 14 14 14 14 15 15 15 15 15 15 15 15 14 14 15 17 17 17 16 15 14 13 13 13 12 13 13 13 13 13 13 12 11 9 9 10 12 11 11 12 13 13 13 13 11 9 9 10 11 11 11 12 14 15 15 16 17 17 17 17 17 15
13 14 14 14 14 14 14 14 14 14 14 14 14 14 14 14 15 16 15 15 15 15 15 15 14 13 13 13 13 13 13 12 12 12 13 14 14 13 13 11 9 9 11 11 11 11 12 13 13 13 11 9 8 8 10 12 12 13 14 16 16 17 17 18 17 17 17 17 16
14 14 14 14 14 14 14 15 15 15 15 15 14 14 14 14 15 15 15 15 15 15 15 14 13 13 13 12 12 12 12 12 12 13 13 14 14 13 13 11 10 10 10 11 11 12 13 13 13 11 9 7 7 8 9 10 11 13 15 16 17 17 18 18 17 17 16 15 15
14 14 14 14 14 14 14 14 14 15 15 15 14 14 14 14 14 14 14 14 14 14 14 14 13 13 13 12 11 12 12 13 13 14 14 13 13 13 12 11 10 9 9 10 11 12 13 13 12 9 7 6 7 8 9 10 11 12 14 16 16 17 17 16 16 15 15 14 14
14 14 14 14 14 14 14 14 14 14 14 14 14 14 14 14 13 13 13 13 13 14 14 13 13 13 12 12 11 12 13 13 14 14 14 13 13 12 11 10 9 9 9 10 12 13 13 12 10 8 7 7 8 9 9 10 11 12 13 14 14 15 15 14 12 12 13 13 12
14 14 14 14 14 14 14 14 13 13 13 13 13 13 13 12 11 11 11 11 12 13 13 12 11 11 11 11 11 12 13 13 13 13 13 12 11 10 9 8 8 8 8 10 11 12 11 10 9 9 8 7 8 9 9 10 11 12 13 13 13 14 14 13 11 11 11 12 11
13 13 14 14 13 13 13 13 13 12 12 12 12 12 11 11 9 9 9 9 10 10 10 10 10 10 11 11 11 12 12 12 12 12 11 10 9 7 7 7 7 8 8 9 10 10 10 9 9 10 9 8 8 9 9 10 11 12 13 13 12 12 12 12 11 10 10 11 10
12 12 12 12 12 12 12 12 12 11 11 10 10 9 9 8 8 8 8 8 9 8 8 8 10 11 11 11 10 11 12 12 11 10 9 8 7 6 6 6 7 8 9 9 9 10 10 10 10 11 10 8 8 9 9 10 11 12 14 13 13 12 11 11 10 10 10 10 10
Wind_Direction
179 178 177 179 180 179 178 179 176 174 174 177 171 170 171 173 172 173 174 175 177 179 179 181 182 182 181 179 175 174 177 183 182 178 174 170 166 164 163 161 162 163 164 165 166 168 168 166 163 160 159 159 158 158 159 164 166 166 165 163 163 165 168 170 166 167 169 171 164
180 178 177 178 179 178 177 177 176 177 177 177 172 171 173 174 173 174 175 177 178 178 178 180 182 182 179 175 172 174 179 185 182 178 174 171 167 165 164 163 164 166 167 168 169 170 170 168 165 163 161 162 161 163 165 171 171 171 170 169 167 169 172 175 171 172 174 175 169
181 178 177 179 180 180 177 176 178 179 179 176 173 173 174 175 174 175 176 177 178 178 177 179 181 178 174 170 170 176 182 186 182 178 174 172 169 167 166 165 167 168 169 170 172 172 172 170 168 166 165 167 167 167 169 173 174 175 174 172 170 173 177 178 176 177 179 182 177
182 180 179 182 183 182 180 178 180 180 179 175 173 174 175 177 175 175 176 176 177 178 179 179 177 171 167 166 171 179 185 187 182 178 175 173 171 169 168 168 169 170 171 173 174 175 174 172 170 170 172 173 172 171 171 173 177 178 176 175 176 179 182 182 181 182 185 188 184
184 183 182 184 185 185 183 180 181 180 179 175 173 174 176 177 176 175 175 176 179 180 179 177 169 163 161 166 174 181 186 187 183 179 177 175 172 171 171 171 171 172 173 175 176 177 177 176 175 176 178 178 178 176 174 173 178 179 179 178 181 186 188 186 186 187 190 193 189
186 185 184 185 187 186 185 183 182 181 180 177 177 176 176 177 177 176 177 178 180 179 177 171 163 159 162 170 177 182 186 186 183 181 178 176 174 173 174 174 174 174 174 176 178 179 180 182 180 181 183 184 182 179 177 177 181 183 182 181 185 191 194 193 190 191 195 198 195
189 188 187 186 187 187 186 183 182 182 181 181 182 181 179 178 178 178 178 177 177 176 173 165 162 162 166 173 179 183 185 184 183 182 180 176 176 176 176 176 177 177 177 178 179 181 184 188 186 185 185 189 187 183 181 182 186 188 187 185 187 194 199 198 194 196 200 203 200
190 191 190 187 188 188 187 183 182 182 183 185 187 185 183 180 179 178 177 177 176 173 169 163 165 167 170 175 180 183 184 184 183 182 180 178 178 178 178 179 179 179 180 180 182 183 186 191 192 188 186 190 192 189 186 188 192 194 195 193 191 195 200 201 200 202 206 207 205
191 191 191 188 189 189 188 185 184 184 185 187 189 188 185 182 180 179 178 179 175 170 165 164 168 170 172 176 180 183 183 183 182 181 180 179 179 180 180 180 181 182 182 183 185 186 188 192 196 191 187 189 196 195 192 192 197 201 204 203 199 199 202 205 205 207 210 210 209
190 189 189 187 188 189 189 188 187 187 187 188 190 189 187 184 183 181 180 179 170 166 165 168 170 172 174 178 181 183 183 183 182 181 180 180 181 181 182 182 183 183 184 186 188 189 191 194 197 194 190 193 201 200 197 196 202 207 211 215 209 206 206 208 209 211 213 213 213
191 189 187 186 188 189 189 188 189 189 189 190 190 189 187 186 186 185 182 175 167 167 169 171 171 173 175 179 182 184 183 182 182 181 180 181 182 183 183 184 184 185 186 186 188 190 192 195 198 196 194 198 204 204 203 202 207 211 217 224 220 216 214 214 214 215 216 216 216
192 190 188 187 187 188 188 188 189 189 190 191 190 189 188 188 189 188 183 173 170 171 173 172 173 174 176 180 183 184 184 183 182 181 181 182 183 184 185 185 186 186 187 187 188 190 192 195 197 198 199 203 205 207 207 207 212 216 221 226 226 224 221 219 219 219 219 218 218
193 191 189 188 187 188 189 189 190 190 191 192 191 190 189 189 190 188 184 178 176 175 175 174 175 177 179 181 183 184 183 183 182 182 182 182 183 185 186 187 188 188 188 187 189 191 193 193 196 199 202 206 208 210 211 213 217 221 224 227 229 228 227 224 223 222 223 223 221
194 192 191 189 187 188 190 191 192 192 192 193 193 191 189 189 189 188 186 183 181 179 177 175 177 180 182 183 183 183 183 182 182 182 182 182 183 185 186 188 189 190 189 186 189 192 194 193 194 198 204 208 211 214 218 221 225 227 228 229 230 231 231 228 226 225 225 226 226
195 194 193 190 188 188 191 193 193 194 193 194 194 192 189 187 188 188 187 187 186 183 179 177 180 182 184 184 184 183 182 182 183 183 183 182 183 185 187 188 191 191 190 187 189 192 194 193 194 198 205 210 215 220 226 230 232 232 232 232 232 232 232 231 229 227 226 226 228
196 195 194 192 190 190 192 194 194 194 194 194 193 191 189 187 187 187 188 189 188 186 183 181 181 182 184 185 184 183 183 183 183 184 183 183 184 185 187 189 191 193 192 188 188 191 193 193 195 200 207 214 221 230 235 237 237 236 235 235 235 235 235 234 232 230 228 226 229
198 197 195 194 193 193 194 195 195 194 193 193 192 190 188 186 185 187 189 190 191 189 186 184 182 181 182 183 183 183 183 184 185 185 185 184 184 185 187 189 192 193 193 190 188 189 190 191 195 202 210 218 231 242 246 245 242 239 237 237 237 238 238 238 236 234 232 229 230
199 198 197 196 196 196 196 196 195 195 194 193 191 190 188 187 186 187 190 192 194 192 189 185 183 181 181 181 182 182 184 185 186 186 185 184 185 186 188 190 192 193 193 191 189 188 189 190 195 201 210 222 241 251 253 251 248 244 241 240 240 241 241 241 240 238 236 233 233
201 200 199 198 198 198 198 198 197 196 195 194 192 191 189 190 188 189 190 194 196 195 191 186 184 182 181 181 181 182 184 186 186 186 185 183 184 186 189 192 193 194 194 192 190 188 188 189 193 197 204 224 246 253 255 255 253 250 247 245 244 243 243 243 242 241 240 237 236
203 202 201 201 201 201 200 200 199 198 197 195 194 193 192 192 192 192 193 194 196 196 194 188 185 183 183 182 182 183 184 186 186 186 184 181 183 187 191 195 196 195 193 192 189 187 187 189 188 188 196 227 247 253 255 257 256 255 252 250 248 247 247 246 245 244 243 241 239
206 205 204 203 203 203 202 201 201 199 198 197 196 196 196 195 196 196 196 195 195 195 195 191 187 185 184 183 183 182 183 183 185 184 182 180 183 189 195 200 199 196 193 190 188 187 187 185 176 176 198 232 246 251 255 257 257 256 255 253 252 251 250 250 249 248 247 245 243
209 208 207 206 206 205 204 202 201 201 200 199 199 199 198 198 198 198 197 194 192 193 194 193 190 188 185 183 182 180 179 179 182 182 180 179 185 193 200 203 200 196 192 190 188 185 181 169 159 173 211 237 246 251 254 256 257 257 257 256 255 254 254 253 252 250 249 248 247
212 211 210 208 207 206 205 203 202 202 202 201 200 200 200 199 198 196 194 191 188 189 190 191 192 190 186 182 180 177 175 174 178 179 178 178 190 201 206 205 201 196 193 192 188 180 168 149 156 190 224 241 249 253 255 257 257 258 258 259 259 259 258 257 255 253 251 250 249
215 214 212 210 207 207 206 205 204 203 203 202 200 199 199 197 194 190 187 185 184 184 185 186 188 186 182 178 178 176 174 173 175 175 176 182 200 208 209 205 201 197 194 191 176 160 148 142 168 206 230 242 250 254 257 258 258 258 259 261 262 263 264 262 260 257 254 252 250
216 216 214 213 209 207 207 206 205 205 205 204 200 197 195 192 186 180 176 175 174 175 177 178 176 173 171 173 175 175 174 173 171 171 178 193 207 211 209 203 200 196 188 167 140 133 135 143 176 212 234 246 254 259 262 262 261 260 260 262 264 265 266 266 263 260 257 254 251
216 216 216 215 211 209 208 207 207 206 206 204 199 193 185 178 170 165 163 161 160 162 165 167 167 165 168 175 175 174 172 169 166 173 187 202 209 210 208 203 198 188 166 140 135 136 140 154 184 215 238 252 261 267 269 269 265 264 263 263 264 264 265 264 263 260 258 255 253
216 216 216 215 213 210 208 206 205 205 202 198 188 178 168 159 156 154 152 150 149 153 160 167 170 172 175 180 177 174 170 166 173 186 198 206 209 209 207 203 192 172 147 140 143 145 152 169 195 218 236 251 260 267 272 274 273 271 269 267 265 263 261 260 260 259 258 256 254
215 216 216 214 213 210 206 201 198 193 185 173 166 160 156 154 153 151 149 147 149 155 163 172 175 177 179 181 180 178 177 177 185 196 204 209 210 209 206 202 183 161 146 149 150 153 162 181 205 221 233 244 255 263 268 271 273 273 271 269 264 261 257 256 256 256 256 255 254
216 215 215 213 211 206 199 188 180 171 163 157 157 156 155 155 155 154 153 153 158 164 169 175 174 176 179 184 185 185 185 188 193 200 205 208 210 208 204 196 173 157 153 155 155 159 169 190 212 226 235 241 249 258 264 267 269 269 269 266 262 258 255 252 252 253 253 254 254
215 212 208 203 197 188 178 168 162 158 157 157 158 158 158 158 159 160 161 163 167 171 173 173 173 176 181 184 185 187 189 193 197 202 205 206 207 205 199 183 167 160 160 160 158 163 176 199 218 230 238 243 248 255 262 265 268 269 268 265 260 256 254 253 253 253 254 255 255
205 196 188 181 177 171 165 160 158 158 159 161 162 162 163 164 167 168 170 171 173 174 175 176 178 181 183 184 185 187 191 195 199 202 204 203 202 197 188 173 169 165 162 161 160 168 185 207 223 234 241 245 248 253 259 263 266 266 266 264 261 259 257 257 257 257 256 257 257
185 178 175 175 174 171 167 164 163 163 164 165 166 168 169 171 173 174 174 174 175 176 179 182 184 185 185 185 186 189 192 196 200 201 201 198 195 189 181 173 172 167 162 160 162 174 193 213 226 236 242 247 250 256 260 264 265 264 263 261 260 260 260 260 259 259 258 258 258
179 177 178 180 179 175 172 170 169 168 169 170 173 174 175 175 175 176 177 178 179 182 185 187 187 187 187 186 188 191 194 197 198 198 195 191 188 183 178 175 173 166 160 159 165 181 201 218 229 238 245 250 256 261 264 265 264 262 260 260 259 260 260 260 260 259 259 259 259
183 184 185 186 182 179 177 175 174 173 174 176 179 179 179 178 178 180 182 184 186 188 189 189 187 186 186 188 189 191 193 195 194 191 188 187 185 182 179 181 176 164 156 159 170 189 208 223 233 241 248 255 261 266 266 265 263 262 261 262 261 261 260 259 259 260 260 260 260
188 189 190 190 186 183 180 179 177 177 178 181 183 184 184 183 184 185 187 189 190 190 190 188 185 184 186 188 190 190 189 188 184 182 182 184 183 182 182 186 176 161 154 161 177 197 214 226 235 242 249 258 264 266 265 265 265 264 264 263 263 262 261 261 261 261 261 261 260
190 192 193 193 190 186 183 181 180 181 182 185 187 188 189 190 190 191 191 190 190 189 188 185 183 183 186 187 188 186 184 180 178 178 180 183 183 183 184 184 174 162 158 167 186 204 218 228 234 240 247 256 260 262 264 265 266 265 264 264 263 263 262 262 262 262 262 260 259
192 193 194 195 192 188 185 183 183 185 187 189 190 192 193 195 196 195 193 190 188 187 186 185 184 184 185 183 181 180 179 177 176 177 179 182 183 183 183 181 175 169 169 178 196 210 220 227 231 234 239 249 255 259 262 265 265 265 265 265 265 264 264 265 264 263 261 258 255
191 192 193 195 193 189 186 184 186 188 190 192 193 195 196 198 199 196 192 188 187 187 186 186 185 183 180 175 175 176 178 178 176 176 177 180 182 182 181 178 179 179 183 191 203 212 218 223 223 223 227 243 252 258 261 263 264 265 266 266 267 267 266 266 265 263 260 255 250
190 191 192 194 193 190 187 186 188 190 192 194 196 197 198 199 197 191 187 186 189 188 186 184 181 178 173 169 171 174 176 176 174 173 174 177 179 177 176 178 186 193 198 201 205 208 211 214 216 218 223 239 250 256 259 261 263 265 266 268 269 269 268 267 265 262 258 252 242
187 189 190 192 192 190 187 187 188 190 193 196 197 196 195 193 187 180 178 183 190 188 183 176 173 170 167 167 169 169 169 170 170 170 170 171 169 168 172 184 198 209 213 209 202 200 202 208 215 220 226 239 249 254 257 260 263 265 266 267 268 268 268 266 262 259 255 251 238
183 186 187 189 189 188 188 188 187 188 190 192 191 188 183 177 170 167 170 179 184 182 174 166 166 164 163 163 163 162 161 162 166 166 166 165 163 166 176 195 212 223 224 215 199 194 198 208 218 224 229 240 248 254 257 260 263 265 266 266 267 267 267 266 262 257 253 250 243